Skip Page Navigation
NASA JPL Caltech
NASA Logo - Jet Propulsion Laboratory + View the NASA Portal
+ Near-Earth Object (NEO) Program
Search JPL
JPL Home Earth Solar System Stars & Galaxies Technology
JPL Solar System Dynamics
BODIES ORBITS EPHEMERIDES TOOLS PHYSICAL DATA DISCOVERY FAQ SITE MAP
JPL Small-Body Database Browser
Search: [ help ]  
32P/Comas Sola
Classification: Jupiter-family Comet          SPK-ID: 1000015
Ephemeris | Orbit Diagram | Orbital Elements | Physical Parameters | Discovery Circumstances | Close-Approach Data ]

[ hide orbit diagram ]
Orbit Diagram
Note: Make sure you have Java enabled on your browser to see the applet. This applet is provided as a 3D orbit visualization tool. The applet was implemented using 2-body methods, and hence should not be used for determining accurate long-term trajectories (over several years or decades) or planetary encounter circumstances. For accurate long-term ephemerides, please instead use our Horizons system.
Orbit Viewer

Additional Notes: the orbits shown in the applet are color coded. The planets are white lines, and the asteroid/comet is a blue line. The bright white line indicates the portion of the orbit that is above the ecliptic plane, and the darker portion is below the ecliptic plane. Likewise for the asteroid/comet orbit, the light blue indicates the portion above the ecliptic plane, and the dark blue the portion below the ecliptic plane.

Orbit Viewer applet originally written and kindly provided by Osamu Ajiki (AstroArts), and further modified by Ron Baalke (JPL).


:
Orbital Elements at Epoch 2453822.5 (2006-Mar-28.0) TDB
Reference: JPL K053/25 (heliocentric ecliptic J2000)
 Element Value Uncertainty (1-sigma)   Units 
e 0.569960916617982 7.9366e-08  
a 4.26393841987696 3.897e-07 AU
q 1.83366016968126 2.9515e-07 AU
i 12.9320978396149 1.697e-05 deg
node 60.77565852647032 5.1799e-05 deg
peri 45.92856037235983 5.7937e-05 deg
M 40.3441640470164 1.1106e-05 deg
tp 2453462.093152995892
(2005-Apr-01.59315300)
8.728e-05 JED
period 3215.990911852197
8.80
0.00044089
1.207e-06
d
yr
n .111940614842305 1.5346e-08 deg/d
Q 6.694216670072665 6.1182e-07 AU

Additional Model Parameters
 Parameter Value Uncertainty (1-sigma) 
A2 [EST] -1.049246023898072E-9 5.122E-12
A3 [EST] 6.221155563462145E-10 1.093E-10
  Orbit Determination Parameters
   # obs. used (total)      1483  
   data-arc span      7244 days (19.83 yr)  
   first obs. used      1986-07-30  
   last obs. used      2006-05-30  
   planetary ephem.      DE405  
   SB-pert. ephem.      SB405-CPV-2  
   condition code      0  
   fit RMS      .73483  
   data source      ORB  
   producer      Nick Mastrodemos  
   solution date      2007-Feb-07 22:27:41  

Additional Information
 Earth MOID = .874763 AU 
 T_jup = 2.670 
[ show covariance matrix ]

Ephemeris | Orbit Diagram | Orbital Elements | Physical Parameters | Discovery Circumstances | Close-Approach Data ]

Physical Parameter Table
Parameter Symbol Value Units Sigma Reference Notes
comet total magnitude M1 11.5 mag 1. K053/25 2 parameter fit from 351 observations, autocmod 2.4
comet total magnitude slope K1 8.   n/a K053/25 autocmod 2.4
diameter diameter 8.4 km n/a Scotti,J (1994) BAAS 26:1375  

32P/Comas Sola          Discovered 1926-Nov-06 by Comas Sola, Josep at Fabra Observatory, Spain
discovered on plate/photo taken on discovery date
Reference: comet.disLast Updated: 2003-08-29

[ show close-approach data ]
Alternate Designations
 Perihelion 
Year
(est.)
 New-Style 
Desig
Roman
 Numeral 
Year/
 Letter 
 1987.6       1987 XVIII   1986j 
 1978.8       1978 XVII   1977n 
 1970.0       1969 VIII   1968g 
 1961.2       1961 III   1960f 
 1952.4       1952 VII   1951h 
 1943.6       1944 II   
 1934.8   32P/1935 P1   1935 IV   1935c 
 1926.0   32P/1926 V1   1927 III   1926f 
Ephemeris | Orbit Diagram | Orbital Elements | Physical Parameters | Discovery Circumstances | Close-Approach Data ]
ABOUT SSD CREDITS/AWARDS PRIVACY/COPYRIGHT GLOSSARY LINKS
FirstGov 2013-May-24 11:44 UT
(server date/time)  
NASA Home Page
Site Manager:   Donald K. Yeomans
Webmaster  Alan B. Chamberlin